| time (UTC) | temp F | wind direction | speed knots | gust knots | rain 1hr in | rain 24hr in | rain mn in | humidity % | barometer mb |
| 20260506051317 | 60 | 259 | 0.0 | 0.0 | 0.00 | 0.00 | 0.00 | 57 | 1016.7 |
| 20260506050850 | 60 | 259 | 0.0 | 0.0 | 0.00 | 0.00 | 0.00 | 57 | 1016.6 |
| 20260506050320 | 61 | 259 | 0.0 | 0.0 | 0.00 | 0.00 | 0.00 | 55 | 1016.5 |
| 20260506044815 | 63 | 259 | 0.0 | 0.0 | 0.00 | 0.00 | 0.00 | 53 | 1016.3 |
| 20260506044348 | 63 | 259 | 0.0 | 0.0 | 0.00 | 0.00 | 0.00 | 54 | 1016.3 |
| 20260506043819 | 64 | 259 | 0.0 | 0.9 | 0.00 | 0.00 | 0.00 | 50 | 1016.2 |
| 20260506043315 | 64 | 259 | 0.0 | 0.9 | 0.00 | 0.00 | 0.00 | 50 | 1016.2 |
| 20260506042828 | 65 | 105 | 0.0 | 0.9 | 0.00 | 0.00 | 0.00 | 49 | 1016.1 |
| 20260506042320 | 65 | 102 | 0.0 | 0.9 | 0.00 | 0.00 | 0.00 | 49 | 1016.0 |
| 20260506041830 | 65 | 103 | 0.0 | 0.0 | 0.00 | 0.00 | 0.00 | 48 | 1016.0 |
| 20260506041322 | 66 | 103 | 0.0 | 1.7 | 0.00 | 0.00 | 0.00 | 47 | 1015.9 |
| 20260506040814 | 67 | 103 | 0.0 | 2.6 | 0.00 | 0.00 | 0.00 | 45 | 1015.8 |
| 20260506040325 | 67 | 117 | 0.9 | 4.3 | 0.00 | 0.00 | 0.00 | 45 | 1015.7 |
| 20260506035815 | 68 | 226 | 0.9 | 4.3 | 0.00 | 0.00 | 0.00 | 44 | 1015.6 |
| 20260506035326 | 67 | 254 | 1.7 | 4.3 | 0.00 | 0.00 | 0.00 | 44 | 1015.4 |
| 20260506034818 | 67 | 278 | 0.0 | 6.1 | 0.00 | 0.00 | 0.00 | 44 | 1015.4 |
| 20260506034313 | 68 | 308 | 0.9 | 4.3 | 0.00 | 0.00 | 0.00 | 43 | 1015.3 |
| 20260506033824 | 68 | 239 | 0.9 | 4.3 | 0.00 | 0.00 | 0.00 | 43 | 1015.2 |
| 20260506033334 | 69 | 20 | 1.7 | 3.5 | 0.00 | 0.00 | 0.00 | 41 | 1015.1 |
| 20260506032825 | 69 | 11 | 0.0 | 2.6 | 0.00 | 0.00 | 0.00 | 41 | 1015.0 |
| 20260506032317 | 70 | 356 | 0.9 | 4.3 | 0.00 | 0.00 | 0.00 | 40 | 1015.0 |
| 20260506031830 | 70 | 342 | 1.7 | 4.3 | 0.00 | 0.00 | 0.00 | 39 | 1015.0 |
| 20260506031321 | 71 | 282 | 0.0 | 3.5 | 0.00 | 0.00 | 0.00 | 39 | 1014.9 |
| 20260506030813 | 72 | 332 | 0.0 | 1.7 | 0.00 | 0.00 | 0.00 | 38 | 1014.9 |
| 20260506030345 | 73 | 57 | 0.0 | 0.9 | 0.00 | 0.00 | 0.00 | 38 | 1014.8 |
| 20260506025816 | 74 | 241 | 0.0 | 1.7 | 0.00 | 0.00 | 0.00 | 37 | 1014.8 |
| 20260506025332 | 74 | 254 | 0.0 | 4.3 | 0.00 | 0.00 | 0.00 | 36 | 1014.7 |
| 20260506024823 | 75 | 323 | 0.0 | 4.3 | 0.00 | 0.00 | 0.00 | 35 | 1014.6 |
| 20260506024315 | 75 | 318 | 0.0 | 2.6 | 0.00 | 0.00 | 0.00 | 35 | 1014.6 |
| 20260506023827 | 75 | 25 | 0.0 | 2.6 | 0.00 | 0.00 | 0.00 | 35 | 1014.5 |
| 20260506023339 | 75 | 345 | 0.9 | 8.7 | 0.00 | 0.00 | 0.00 | 34 | 1014.5 |
| 20260506022829 | 75 | 290 | 0.9 | 8.7 | 0.00 | 0.00 | 0.00 | 34 | 1014.4 |
| 20260506022321 | 76 | 304 | 0.0 | 3.5 | 0.00 | 0.00 | 0.00 | 35 | 1014.3 |
| 20260506021814 | 76 | 232 | 1.7 | 7.0 | 0.00 | 0.00 | 0.00 | 35 | 1014.3 |
| 20260506021327 | 76 | 214 | 0.9 | 7.0 | 0.00 | 0.00 | 0.00 | 36 | 1014.3 |
| 20260506020823 | 76 | 310 | 1.7 | 5.2 | 0.00 | 0.00 | 0.00 | 36 | 1014.2 |
| 20260506020314 | 77 | 34 | 2.6 | 6.1 | 0.00 | 0.00 | 0.00 | 37 | 1014.2 |
| 20260506015825 | 77 | 293 | 1.7 | 6.1 | 0.00 | 0.00 | 0.00 | 40 | 1014.1 |
| 20260506015316 | 77 | 258 | 1.7 | 5.2 | 0.00 | 0.00 | 0.00 | 41 | 1014.1 |
| 20260506014828 | 77 | 281 | 1.7 | 5.2 | 0.00 | 0.00 | 0.00 | 41 | 1014.1 |
| 20260506014319 | 77 | 268 | 1.7 | 4.3 | 0.00 | 0.00 | 0.00 | 41 | 1014.1 |
| 20260506013832 | 77 | 311 | 0.9 | 3.5 | 0.00 | 0.00 | 0.00 | 41 | 1014.1 |
| 20260506013325 | 77 | 245 | 1.7 | 5.2 | 0.00 | 0.00 | 0.00 | 40 | 1014.1 |
| 20260506012816 | 78 | 241 | 1.7 | 4.3 | 0.00 | 0.00 | 0.00 | 40 | 1014.0 |
| 20260506012313 | 77 | 304 | 0.0 | 5.2 | 0.00 | 0.00 | 0.00 | 39 | 1014.0 |
| 20260506011824 | 77 | 251 | 0.0 | 5.2 | 0.00 | 0.00 | 0.00 | 42 | 1014.0 |
| 20260506011337 | 78 | 291 | 0.0 | 5.2 | 0.00 | 0.00 | 0.00 | 41 | 1014.0 |
| 20260506010827 | 77 | 331 | 3.5 | 5.2 | 0.00 | 0.00 | 0.00 | 40 | 1014.0 |
| 20260506010319 | 77 | 233 | 0.0 | 5.2 | 0.00 | 0.00 | 0.00 | 43 | 1014.0 |
| 20260506005831 | 77 | 252 | 2.6 | 5.2 | 0.00 | 0.00 | 0.00 | 41 | 1014.0 |
| 20260506005324 | 78 | 250 | 1.7 | 4.3 | 0.00 | 0.00 | 0.00 | 41 | 1014.0 |
| 20260506004816 | 78 | 272 | 0.9 | 5.2 | 0.00 | 0.00 | 0.00 | 41 | 1014.0 |
| 20260506004328 | 78 | 237 | 0.0 | 6.1 | 0.00 | 0.00 | 0.00 | 41 | 1014.0 |
| 20260506003823 | 78 | 291 | 0.0 | 5.2 | 0.00 | 0.00 | 0.00 | 41 | 1013.8 |
| 20260506003335 | 78 | 252 | 1.7 | 5.2 | 0.00 | 0.00 | 0.00 | 41 | 1014.0 |
| 20260506002826 | 78 | 279 | 1.7 | 3.5 | 0.00 | 0.00 | 0.00 | 42 | 1013.9 |
| 20260506002318 | 78 | 284 | 0.9 | 4.3 | 0.00 | 0.00 | 0.00 | 42 | 1013.9 |
| 20260506001830 | 78 | 253 | 1.7 | 5.2 | 0.00 | 0.00 | 0.00 | 41 | 1014.0 |
| 20260506001320 | 79 | 340 | 0.9 | 2.6 | 0.00 | 0.00 | 0.00 | 41 | 1013.9 |
| 20260506000853 | 78 | 263 | 0.0 | 2.6 | 0.00 | 0.00 | 0.00 | 42 | 1013.9 |
| 20260506000325 | 77 | 323 | 0.0 | 7.0 | 0.00 | 0.00 | 0.00 | 43 | 1013.9 |
| 20260505235816 | 77 | 233 | 2.6 | 7.0 | 0.00 | 0.00 | 0.00 | 43 | 1014.0 |
| 20260505235332 | 78 | 320 | 0.9 | 5.2 | 0.00 | 0.00 | 0.00 | 42 | 1014.0 |
| 20260505234845 | 77 | 266 | 1.7 | 5.2 | 0.00 | 0.00 | 0.00 | 43 | 1014.0 |
| 20260505234316 | 76 | 275 | 0.0 | 5.2 | 0.00 | 0.00 | 0.00 | 43 | 1014.0 |
| 20260505233828 | 76 | 277 | 2.6 | 7.0 | 0.00 | 0.00 | 0.00 | 43 | 1014.1 |
| 20260505233319 | 77 | 243 | 0.9 | 3.5 | 0.00 | 0.00 | 0.00 | 43 | 1014.0 |
| 20260505232832 | 76 | 285 | 1.7 | 4.3 | 0.00 | 0.00 | 0.00 | 43 | 1014.1 |
| 20260505232324 | 76 | 276 | 0.9 | 7.0 | 0.00 | 0.00 | 0.00 | 43 | 1014.2 |
| 20260505231835 | 76 | 277 | 3.5 | 7.0 | 0.00 | 0.00 | 0.00 | 41 | 1014.2 |
| 20260505231326 | 76 | 248 | 0.9 | 6.1 | 0.00 | 0.00 | 0.00 | 43 | 1014.1 |
| 20260505230823 | 76 | 276 | 1.7 | 5.2 | 0.00 | 0.00 | 0.00 | 43 | 1014.2 |
| 20260505230316 | 76 | 242 | 1.7 | 5.2 | 0.00 | 0.00 | 0.00 | 43 | 1014.3 |
| 20260505225828 | 76 | 297 | 0.9 | 5.2 | 0.00 | 0.00 | 0.00 | 43 | 1014.3 |
| 20260505225320 | 75 | 249 | 1.7 | 6.1 | 0.00 | 0.00 | 0.00 | 44 | 1014.3 |
| 20260505224832 | 75 | 271 | 0.0 | 7.0 | 0.00 | 0.00 | 0.00 | 44 | 1014.4 |
| 20260505224343 | 74 | 246 | 2.6 | 7.0 | 0.00 | 0.00 | 0.00 | 43 | 1014.4 |
| 20260505223815 | 75 | 287 | 2.6 | 6.1 | 0.00 | 0.00 | 0.00 | 42 | 1014.4 |
| 20260505223327 | 75 | 253 | 0.9 | 5.2 | 0.00 | 0.00 | 0.00 | 41 | 1014.5 |
| 20260505222839 | 75 | 257 | 2.6 | 5.2 | 0.00 | 0.00 | 0.00 | 40 | 1014.5 |
| 20260505222314 | 75 | 244 | 1.7 | 5.2 | 0.00 | 0.00 | 0.00 | 42 | 1014.6 |
| 20260505221826 | 75 | 290 | 2.6 | 5.2 | 0.00 | 0.00 | 0.00 | 41 | 1014.5 |
| 20260505221318 | 74 | 257 | 1.7 | 4.3 | 0.00 | 0.00 | 0.00 | 42 | 1014.6 |
| 20260505220831 | 75 | 96 | 0.9 | 5.2 | 0.00 | 0.00 | 0.00 | 42 | 1014.7 |
| 20260505220323 | 74 | 263 | 1.7 | 5.2 | 0.00 | 0.00 | 0.00 | 43 | 1014.7 |
| 20260505215815 | 74 | 63 | 0.9 | 4.3 | 0.00 | 0.00 | 0.00 | 44 | 1014.8 |
| 20260505215328 | 74 | 262 | 0.9 | 4.3 | 0.00 | 0.00 | 0.00 | 42 | 1014.9 |
| 20260505214839 | 74 | 283 | 2.6 | 4.3 | 0.00 | 0.00 | 0.00 | 43 | 1014.9 |
| 20260505214330 | 74 | 224 | 0.0 | 4.3 | 0.00 | 0.00 | 0.00 | 45 | 1014.9 |
| 20260505213822 | 73 | 248 | 1.7 | 4.3 | 0.00 | 0.00 | 0.00 | 42 | 1015.0 |
| 20260505213315 | 73 | 264 | 2.6 | 6.1 | 0.00 | 0.00 | 0.00 | 42 | 1015.0 |
| 20260505212825 | 73 | 247 | 2.6 | 6.1 | 0.00 | 0.00 | 0.00 | 45 | 1015.0 |
| 20260505212317 | 72 | 243 | 1.7 | 6.1 | 0.00 | 0.00 | 0.00 | 48 | 1015.0 |
| 20260505211829 | 72 | 236 | 1.7 | 6.1 | 0.00 | 0.00 | 0.00 | 48 | 1015.0 |
| 20260505211341 | 72 | 259 | 0.9 | 4.3 | 0.00 | 0.00 | 0.00 | 48 | 1015.0 |
| 20260505210851 | 72 | 274 | 2.6 | 4.3 | 0.00 | 0.00 | 0.00 | 46 | 1015.1 |
| 20260505210322 | 71 | 63 | 0.0 | 5.2 | 0.00 | 0.00 | 0.00 | 49 | 1015.3 |
| 20260505205815 | 72 | 287 | 1.7 | 6.1 | 0.00 | 0.00 | 0.00 | 48 | 1015.3 |
| 20260505205327 | 70 | 131 | 0.0 | 6.1 | 0.00 | 0.00 | 0.00 | 50 | 1015.3 |
| 20260505204822 | 70 | 27 | 0.0 | 5.2 | 0.00 | 0.00 | 0.00 | 48 | 1015.4 |
| 20260505204314 | 69 | 229 | 2.6 | 6.1 | 0.00 | 0.00 | 0.00 | 49 | 1015.5 |
| 20260505203827 | 69 | 258 | 0.9 | 5.2 | 0.00 | 0.00 | 0.00 | 48 | 1015.4 |
| 20260505203319 | 69 | 266 | 0.9 | 6.1 | 0.00 | 0.00 | 0.00 | 48 | 1015.5 |
| 20260505202832 | 69 | 316 | 0.0 | 6.1 | 0.00 | 0.00 | 0.00 | 52 | 1015.6 |
| 20260505202322 | 68 | 265 | 3.5 | 4.3 | 0.00 | 0.00 | 0.00 | 50 | 1015.7 |
| 20260505201834 | 69 | 87 | 0.0 | 4.3 | 0.00 | 0.00 | 0.00 | 49 | 1015.6 |
| 20260505201324 | 69 | 345 | 0.0 | 4.3 | 0.00 | 0.00 | 0.00 | 51 | 1015.8 |
| 20260505200815 | 70 | 284 | 0.9 | 4.3 | 0.00 | 0.00 | 0.00 | 51 | 1015.8 |
| 20260505200328 | 70 | 264 | 0.9 | 4.3 | 0.00 | 0.00 | 0.00 | 52 | 1015.8 |
| 20260505195823 | 68 | 89 | 0.0 | 4.3 | 0.00 | 0.00 | 0.00 | 54 | 1015.9 |
| 20260505195314 | 68 | 272 | 2.6 | 6.1 | 0.00 | 0.00 | 0.00 | 53 | 1015.8 |
| 20260505194825 | 69 | 275 | 1.7 | 5.2 | 0.00 | 0.00 | 0.00 | 53 | 1015.8 |
| 20260505194315 | 67 | 106 | 0.0 | 6.1 | 0.00 | 0.00 | 0.00 | 54 | 1015.9 |
| 20260505193827 | 66 | 223 | 0.9 | 7.0 | 0.00 | 0.00 | 0.00 | 54 | 1015.9 |
| 20260505193319 | 68 | 266 | 2.6 | 6.1 | 0.00 | 0.00 | 0.00 | 53 | 1015.8 |
| 20260505192831 | 68 | 253 | 0.0 | 4.3 | 0.00 | 0.00 | 0.00 | 55 | 1015.9 |
| 20260505192344 | 67 | 120 | 0.0 | 4.3 | 0.00 | 0.00 | 0.00 | 55 | 1015.9 |
| 20260505191834 | 67 | 232 | 0.0 | 6.1 | 0.00 | 0.00 | 0.00 | 55 | 1015.9 |
| 20260505191326 | 66 | 173 | 1.7 | 6.1 | 0.00 | 0.00 | 0.00 | 55 | 1016.0 |
| 20260505190823 | 66 | 112 | 0.9 | 3.5 | 0.00 | 0.00 | 0.00 | 60 | 1016.0 |
| 20260505190315 | 65 | 275 | 1.7 | 4.3 | 0.00 | 0.00 | 0.00 | 60 | 1016.0 |
| 20260505185828 | 65 | 240 | 0.9 | 4.3 | 0.00 | 0.00 | 0.00 | 59 | 1016.1 |
| 20260505185317 | 66 | 247 | 1.7 | 3.5 | 0.00 | 0.00 | 0.00 | 59 | 1016.0 |
| 20260505184828 | 66 | 265 | 0.9 | 3.5 | 0.00 | 0.00 | 0.00 | 60 | 1016.1 |
| 20260505184320 | 65 | 265 | 0.0 | 4.3 | 0.00 | 0.00 | 0.00 | 61 | 1016.1 |
| 20260505183831 | 64 | 259 | 0.9 | 4.3 | 0.00 | 0.00 | 0.00 | 61 | 1016.1 |
| 20260505183324 | 65 | 293 | 0.9 | 2.6 | 0.00 | 0.00 | 0.00 | 60 | 1016.1 |
| 20260505182818 | 64 | 158 | 0.0 | 4.3 | 0.00 | 0.00 | 0.00 | 64 | 1016.2 |
| 20260505182329 | 63 | 295 | 0.0 | 5.2 | 0.00 | 0.00 | 0.00 | 64 | 1016.2 |
| 20260505181821 | 63 | 250 | 1.7 | 5.2 | 0.00 | 0.00 | 0.00 | 64 | 1016.2 |
| 20260505181313 | 62 | 255 | 0.9 | 5.2 | 0.00 | 0.00 | 0.00 | 65 | 1016.2 |
| 20260505180825 | 61 | 143 | 1.7 | 5.2 | 0.00 | 0.00 | 0.00 | 65 | 1016.2 |
| 20260505180318 | 62 | 262 | 0.0 | 5.2 | 0.00 | 0.00 | 0.00 | 66 | 1016.2 |
| 20260505175829 | 62 | 267 | 1.7 | 5.2 | 0.00 | 0.00 | 0.00 | 64 | 1016.2 |
| 20260505175321 | 63 | 203 | 0.0 | 3.5 | 0.00 | 0.00 | 0.00 | 66 | 1016.3 |
| 20260505174816 | 63 | 242 | 1.7 | 3.5 | 0.00 | 0.00 | 0.00 | 64 | 1016.3 |
| 20260505174328 | 63 | 156 | 0.0 | 2.6 | 0.00 | 0.00 | 0.00 | 63 | 1016.2 |
| 20260505173818 | 63 | 131 | 0.9 | 2.6 | 0.00 | 0.00 | 0.00 | 64 | 1016.3 |
| 20260505173330 | 62 | 141 | 0.0 | 3.5 | 0.00 | 0.00 | 0.00 | 67 | 1016.2 |
| 20260505172821 | 62 | 279 | 0.9 | 3.5 | 0.00 | 0.00 | 0.00 | 66 | 1016.3 |
| 20260505172314 | 61 | 258 | 0.0 | 1.7 | 0.00 | 0.00 | 0.00 | 68 | 1016.3 |
| 20260505171826 | 60 | 120 | 0.0 | 2.6 | 0.00 | 0.00 | 0.00 | 68 | 1016.4 |
| 20260505171339 | 60 | 245 | 1.7 | 2.6 | 0.00 | 0.00 | 0.00 | 68 | 1016.4 |
| 20260505170830 | 60 | 245 | 0.9 | 2.6 | 0.00 | 0.00 | 0.00 | 69 | 1016.3 |
| 20260505170320 | 59 | 271 | 0.9 | 3.5 | 0.00 | 0.00 | 0.00 | 72 | 1016.5 |
| 20260505165832 | 58 | 255 | 0.0 | 3.5 | 0.00 | 0.00 | 0.00 | 74 | 1016.6 |
| 20260505165327 | 58 | 252 | 1.7 | 3.5 | 0.00 | 0.00 | 0.00 | 73 | 1016.6 |
| 20260505164819 | 58 | 274 | 0.0 | 3.5 | 0.00 | 0.00 | 0.00 | 72 | 1016.6 |
| 20260505164332 | 59 | 354 | 0.0 | 1.7 | 0.00 | 0.00 | 0.00 | 73 | 1016.6 |
| 20260505163824 | 57 | 89 | 0.0 | 2.6 | 0.00 | 0.00 | 0.00 | 75 | 1016.6 |
| 20260505163315 | 56 | 300 | 1.7 | 2.6 | 0.00 | 0.00 | 0.00 | 77 | 1016.6 |
| 20260505162827 | 56 | 270 | 0.0 | 3.5 | 0.00 | 0.00 | 0.00 | 78 | 1016.6 |
| 20260505162319 | 56 | 260 | 0.9 | 3.5 | 0.00 | 0.00 | 0.00 | 77 | 1016.6 |
| 20260505161832 | 56 | 274 | 0.9 | 2.6 | 0.00 | 0.00 | 0.00 | 78 | 1016.6 |
| 20260505161327 | 56 | 268 | 0.9 | 2.6 | 0.00 | 0.00 | 0.00 | 78 | 1016.6 |
| 20260505160817 | 56 | 255 | 0.0 | 1.7 | 0.00 | 0.00 | 0.00 | 79 | 1016.6 |
| 20260505160330 | 55 | 269 | 0.0 | 2.6 | 0.00 | 0.00 | 0.00 | 78 | 1016.6 |
| 20260505153320 | 56 | 102 | 0.0 | 0.9 | 0.00 | 0.00 | 0.00 | 79 | 1016.6 |
| 20260505152831 | 56 | 102 | 0.0 | 0.0 | 0.00 | 0.00 | 0.00 | 79 | 1016.6 |
| 20260505152343 | 56 | 102 | 0.0 | 0.0 | 0.00 | 0.00 | 0.00 | 80 | 1016.5 |
| 20260505151818 | 55 | 102 | 0.0 | 0.0 | 0.00 | 0.00 | 0.00 | 80 | 1016.5 |
| 20260505151350 | 55 | 102 | 0.0 | 0.9 | 0.00 | 0.00 | 0.00 | 81 | 1016.5 |
| 20260505150821 | 55 | 102 | 0.0 | 1.7 | 0.00 | 0.00 | 0.00 | 82 | 1016.4 |
| 20260505150314 | 55 | 137 | 0.0 | 0.9 | 0.00 | 0.00 | 0.00 | 82 | 1016.4 |
| 20260505140317 | 54 | 248 | 0.0 | 0.9 | 0.00 | 0.00 | 0.00 | 83 | 1016.0 |
| 20260505124822 | 54 | 236 | 0.0 | 1.7 | 0.00 | 0.00 | 0.00 | 82 | 1015.4 |
| 20260505124313 | 54 | 231 | 0.9 | 2.6 | 0.00 | 0.00 | 0.00 | 82 | 1015.3 |
| 20260505123825 | 54 | 285 | 0.0 | 2.6 | 0.00 | 0.00 | 0.00 | 82 | 1015.4 |
| 20260505123317 | 54 | 246 | 0.0 | 2.6 | 0.00 | 0.00 | 0.00 | 82 | 1015.4 |
| 20260505122829 | 54 | 270 | 1.7 | 2.6 | 0.00 | 0.00 | 0.00 | 82 | 1015.3 |
| 20260505122321 | 54 | 273 | 0.0 | 2.6 | 0.00 | 0.00 | 0.00 | 82 | 1015.3 |
| 20260505121813 | 54 | 258 | 1.7 | 2.6 | 0.00 | 0.00 | 0.00 | 82 | 1015.3 |
| 20260505121346 | 54 | 254 | 0.0 | 1.7 | 0.00 | 0.00 | 0.00 | 82 | 1015.2 |
| 20260505120821 | 54 | 285 | 0.9 | 2.6 | 0.00 | 0.00 | 0.00 | 82 | 1015.2 |
| 20260505120313 | 54 | 265 | 0.9 | 2.6 | 0.00 | 0.00 | 0.00 | 82 | 1015.1 |
| 20260505115825 | 54 | 238 | 0.0 | 2.6 | 0.00 | 0.00 | 0.00 | 82 | 1015.1 |
| 20260505115317 | 54 | 308 | 0.9 | 3.5 | 0.00 | 0.00 | 0.00 | 82 | 1015.0 |
| 20260505114829 | 54 | 271 | 0.9 | 3.5 | 0.00 | 0.00 | 0.00 | 82 | 1015.0 |
| 20260505114321 | 54 | 270 | 0.0 | 2.6 | 0.00 | 0.00 | 0.00 | 82 | 1015.0 |
| 20260505113813 | 54 | 264 | 0.9 | 2.6 | 0.00 | 0.00 | 0.00 | 82 | 1015.0 |
| 20260505113326 | 54 | 229 | 0.0 | 0.9 | 0.00 | 0.00 | 0.00 | 82 | 1014.9 |
| 20260505112822 | 54 | 252 | 0.0 | 3.5 | 0.00 | 0.00 | 0.00 | 83 | 1014.9 |
| 20260505112353 | 54 | 271 | 0.0 | 3.5 | 0.00 | 0.00 | 0.00 | 82 | 1014.9 |
| 20260505111823 | 54 | 347 | 0.0 | 1.7 | 0.00 | 0.00 | 0.00 | 83 | 1014.9 |
| 20260505111316 | 54 | 249 | 0.9 | 3.5 | 0.00 | 0.00 | 0.00 | 83 | 1014.8 |
| 20260505110828 | 54 | 269 | 0.0 | 2.6 | 0.00 | 0.00 | 0.00 | 83 | 1014.8 |
| 20260505110340 | 54 | 245 | 0.9 | 2.6 | 0.00 | 0.00 | 0.00 | 83 | 1014.8 |
| 20260505101851 | 53 | 323 | 0.0 | 1.7 | 0.00 | 0.00 | 0.00 | 84 | 1014.6 |
| 20260505101322 | 53 | 315 | 0.0 | 2.6 | 0.00 | 0.00 | 0.00 | 84 | 1014.6 |
| 20260505100814 | 53 | 330 | 0.9 | 2.6 | 0.00 | 0.00 | 0.00 | 84 | 1014.6 |
| 20260505100325 | 53 | 271 | 0.0 | 2.6 | 0.00 | 0.00 | 0.00 | 84 | 1014.6 |
| 20260505095821 | 53 | 326 | 0.9 | 2.6 | 0.00 | 0.00 | 0.00 | 84 | 1014.7 |
| 20260505095334 | 53 | 272 | 0.9 | 1.7 | 0.00 | 0.00 | 0.00 | 85 | 1014.7 |
| 20260505094825 | 53 | 309 | 0.0 | 1.7 | 0.00 | 0.00 | 0.00 | 85 | 1014.7 |
| 20260505094317 | 52 | 7 | 0.0 | 1.7 | 0.00 | 0.00 | 0.00 | 86 | 1014.7 |
| 20260505093829 | 52 | 360 | 0.0 | 0.9 | 0.00 | 0.00 | 0.00 | 86 | 1014.8 |
| 20260505093321 | 52 | 284 | 0.0 | 0.9 | 0.00 | 0.00 | 0.00 | 86 | 1014.7 |
| 20260505092832 | 52 | 335 | 0.0 | 0.9 | 0.00 | 0.00 | 0.00 | 85 | 1014.8 |
| 20260505092324 | 52 | 342 | 0.0 | 0.9 | 0.00 | 0.00 | 0.00 | 85 | 1014.8 |
| 20260505091817 | 52 | 336 | 0.0 | 0.9 | 0.00 | 0.00 | 0.00 | 85 | 1014.8 |
| 20260505091313 | 53 | 129 | 0.0 | 0.0 | 0.00 | 0.00 | 0.00 | 84 | 1014.8 |
| 20260505090824 | 53 | 129 | 0.0 | 1.7 | 0.00 | 0.00 | 0.00 | 84 | 1014.7 |
| 20260505090316 | 53 | 212 | 0.0 | 2.6 | 0.00 | 0.00 | 0.00 | 84 | 1014.7 |
| 20260505085828 | 53 | 349 | 0.0 | 2.6 | 0.00 | 0.00 | 0.00 | 84 | 1014.7 |
| 20260505085339 | 53 | 256 | 0.0 | 2.6 | 0.00 | 0.00 | 0.00 | 84 | 1014.7 |
| 20260505084831 | 53 | 340 | 0.0 | 2.6 | 0.00 | 0.00 | 0.00 | 83 | 1014.7 |
| 20260505084323 | 54 | 275 | 0.0 | 3.5 | 0.00 | 0.00 | 0.00 | 83 | 1014.6 |
| 20260505083814 | 54 | 268 | 0.0 | 3.5 | 0.00 | 0.00 | 0.00 | 83 | 1014.7 |
| 20260505083327 | 54 | 285 | 0.0 | 3.5 | 0.00 | 0.00 | 0.00 | 83 | 1014.6 |
| 20260505082823 | 54 | 261 | 0.0 | 1.7 | 0.00 | 0.00 | 0.00 | 82 | 1014.6 |
| 20260505082316 | 54 | 1 | 0.0 | 4.3 | 0.00 | 0.00 | 0.00 | 82 | 1014.6 |
| 20260505081828 | 54 | 300 | 0.9 | 4.3 | 0.00 | 0.00 | 0.00 | 82 | 1014.6 |
| 20260505081341 | 54 | 263 | 0.0 | 3.5 | 0.00 | 0.00 | 0.00 | 82 | 1014.6 |
| 20260505080832 | 54 | 274 | 0.9 | 3.5 | 0.00 | 0.00 | 0.00 | 82 | 1014.5 |
| 20260505080324 | 55 | 238 | 1.7 | 3.5 | 0.00 | 0.00 | 0.00 | 81 | 1014.5 |
| 20260505075836 | 55 | 314 | 0.0 | 3.5 | 0.00 | 0.00 | 0.00 | 81 | 1014.5 |
| 20260505075327 | 55 | 262 | 0.9 | 5.2 | 0.00 | 0.00 | 0.00 | 81 | 1014.5 |
| 20260505074817 | 55 | 264 | 1.7 | 8.7 | 0.00 | 0.00 | 0.00 | 80 | 1014.5 |
| 20260505074313 | 55 | 251 | 0.9 | 8.7 | 0.00 | 0.00 | 0.00 | 80 | 1014.5 |
| 20260505073825 | 55 | 346 | 1.7 | 5.2 | 0.00 | 0.00 | 0.00 | 80 | 1014.5 |
| 20260505073317 | 55 | 1 | 0.9 | 3.5 | 0.00 | 0.00 | 0.00 | 80 | 1014.5 |
| 20260505072828 | 55 | 349 | 0.9 | 3.5 | 0.00 | 0.00 | 0.00 | 80 | 1014.5 |
| 20260505072340 | 56 | 327 | 0.9 | 3.5 | 0.00 | 0.00 | 0.00 | 79 | 1014.4 |
| 20260505071851 | 56 | 13 | 0.9 | 5.2 | 0.00 | 0.00 | 0.00 | 79 | 1014.4 |
| 20260505071321 | 56 | 244 | 0.9 | 5.2 | 0.00 | 0.00 | 0.00 | 78 | 1014.3 |
| 20260505070813 | 56 | 300 | 1.7 | 4.3 | 0.00 | 0.00 | 0.00 | 78 | 1014.3 |
| 20260505070325 | 56 | 242 | 1.7 | 4.3 | 0.00 | 0.00 | 0.00 | 78 | 1014.3 |
| 20260505065818 | 57 | 292 | 0.9 | 7.8 | 0.00 | 0.00 | 0.00 | 77 | 1014.2 |
| 20260505065314 | 57 | 25 | 1.7 | 7.8 | 0.00 | 0.00 | 0.00 | 77 | 1014.2 |
| 20260505064826 | 57 | 239 | 1.7 | 4.3 | 0.00 | 0.00 | 0.00 | 77 | 1014.1 |
| 20260505064338 | 57 | 126 | 1.7 | 5.2 | 0.00 | 0.00 | 0.00 | 77 | 1014.1 |
| 20260505063829 | 57 | 339 | 0.9 | 5.2 | 0.00 | 0.00 | 0.00 | 76 | 1014.0 |
| 20260505063321 | 57 | 278 | 1.7 | 5.2 | 0.00 | 0.00 | 0.00 | 76 | 1013.9 |
| 20260505062813 | 58 | 304 | 2.6 | 5.2 | 0.00 | 0.00 | 0.00 | 76 | 1013.9 |
| 20260505062326 | 58 | 235 | 0.9 | 5.2 | 0.00 | 0.00 | 0.00 | 75 | 1013.8 |
| 20260505061838 | 58 | 323 | 1.7 | 5.2 | 0.00 | 0.00 | 0.00 | 75 | 1013.8 |
| 20260505061329 | 58 | 205 | 0.9 | 5.2 | 0.00 | 0.00 | 0.00 | 75 | 1013.7 |
| 20260505060841 | 58 | 300 | 0.9 | 4.3 | 0.00 | 0.00 | 0.00 | 75 | 1013.7 |
| 20260505060316 | 58 | 290 | 1.7 | 4.3 | 0.00 | 0.00 | 0.00 | 74 | 1013.7 |
| 20260505055829 | 58 | 327 | 0.9 | 3.5 | 0.00 | 0.00 | 0.00 | 74 | 1013.7 |